Regional Weather Roundup
Issued by NWS Sioux Falls, SD

Home | Current Version | Previous Version | Graphics & Text | Print | Product List | Glossary On
Versions: 1 2 3 4 5 6 7 8 9 10 11 12 13 14 15 16 17 18 19 20 21 22 23 24 25 26 27 28 29 30 31 32 33 34 35 36 37 38 39 40 41 42 43 44 45 46 47 48 49 50
000
ASUS43 KFSD 231002
RWRFSD

WEATHER ROUNDUP FOR SE SOUTH DAKOTA/SW MINNESOTA/NW IOWA
NATIONAL WEATHER SERVICE SIOUX FALLS SD
400 AM CST MON JAN 23 2017

NOTE: "FAIR" INDICATES FEW OR NO CLOUDS BELOW 12,000 FEET WITH NO
SIGNIFICANT WEATHER AND OR OBSTRUCTIONS TO VISIBILITY.


SDZ038>040-050-052>070-231100-
SOUTHEAST SOUTH DAKOTA

CITY           SKY/WX    TMP DP  RH WIND       PRES   REMARKS
BROOKINGS      CLOUDY    30  27  88 NW12      29.83S WCI  20
CHAMBERLAIN    CLOUDY    31  28  87 CALM      29.86S
HURON          CLOUDY    30  26  85 NW5       29.85F WCI  25
MADISON        CLOUDY    28  28 100 NW9         N/A  WCI  20
MITCHELL       CLOUDY    31  27  85 NW5       29.87F WCI  26
SIOUX FALLS    CLOUDY    31  29  92 NW9       29.86F WCI  23
WINNER         FOG       25  23  92 E6        29.84F VSB 1/4 WCI  18
YANKTON        CLOUDY    30  25  80 NW7       29.88F WCI  23
$$

MNZ071-072-080-081-089-090-097-098-231100-
SOUTHWEST MINNESOTA

CITY           SKY/WX    TMP DP  RH WIND       PRES   REMARKS
FAIRMONT       CLOUDY    32  28  85 NW8       29.85S WCI  25
JACKSON        CLOUDY    32  28  86 NW7       29.84S WCI  26
LUVERNE        CLOUDY    32  27  80 NW7       29.86S WCI  26
MARSHALL       CLOUDY    33  29  85 NW10      29.85S WCI  25
MONTEVIDEO     CLOUDY    34  34 100 N8        29.85S WCI  27
PIPESTONE      CLOUDY    32  28  86 NW5       29.83S WCI  27
REDWOOD FALLS  CLOUDY    33  29  85 NW8       29.83S WCI  26
TRACY          CLOUDY    33  31  89 NW7       29.84S WCI  27
WINDOM         CLOUDY    34  28  80 W7        29.84R WCI  28
WORTHINGTON    CLOUDY    32  29  88 NW9       29.85R WCI  24
$$

IAZ001>003-012>014-020>022-031-032-NEZ013-014-SDZ071-231100-
NORTHWEST IOWA

CITY           SKY/WX    TMP DP  RH WIND       PRES   REMARKS
CHEROKEE       CLOUDY    32  29  90 N7        29.87F WCI  26
DENISON        CLOUDY    30  28  93 NW10      29.86S WCI  21
ESTHERVILLE    CLOUDY    31  30  96 NW9       29.84S WCI  23
LE MARS        CLOUDY    32  28  86 N8        29.88F WCI  25
ORANGE CITY    CLOUDY    30  28  93 N6        29.86F WCI  24
SHELDON        CLOUDY    32  32 100 NW7       29.84F WCI  26
SIOUX CITY     CLOUDY    34  29  82 NW9       29.91R WCI  27
SPENCER          N/A    N/A N/A N/A MISG      29.86S
STORM LAKE     CLOUDY    30  28  93 N12       29.85F WCI  21
$$

ABBREVIATIONS USED IN REMARKS
   TC - TEMPERATURE IN CELSIUS
  WCI - WIND CHILL INDEX
   HX - HEAT INDEX
  VSB - VISIBILITY





USA.gov is the U.S. government's official web portal to all federal, state and local government web resources and services.